Showing default

RAPTOR4, 58956

Orbit data source: Space-Track

RAPTOR4, 58956 is a payload satellite owned by SDA (US) in LEO that was launched on Wed, 14 Feb 2024 UTC via an FALCON 9 launch vehicle from the Air Force Eastern Test Range (AFETR). Payload-class satellites include a variety of spacecraft equipped with specific instruments for various scientific and technological missions. These include communications satellites like Starlink; space stations such as the ISS; scientific satellites like the Hubble; Earth observation satellites from companies like Planet Labs, Umbra, and HawkEye 360; GPS; miniature CubeSats for education and research; and military/defense satellites.

Loading next visibility...
Identifier
58956, 2024-028B
Orbit
LEO
Country
Flag of USUS
Related business
Manufacturer
L3Harris SIS
Mission
Operational Defense Early Warn
Bus & Motor
TPL0-L3H, Unknown motor
Mass
~1,000 kg wet, ~1,000 kg dry
Launch date (UTC)
2024-02-14 (2 years ago)
Launch vehicle
FALCON 9
Launch site
Air Force Eastern Test Range (AFETR)
Object type
Payload
Rocket body
Debris
Shape & HBR
Box + 1 Pan, 1.0 m
Radar Cross Section
0.945 m², Large (>1 m²)

Expand to show TLE details & history
Last TLE update: 10 hours ago

TLE from 10 hours ago
0 RAPTOR4
1 58956U 24028B   25352.56880129 -.00000068  00000-0  10230-4 0  9990
2 58956  39.9883 153.8919 0015602 279.4335  80.4648 13.70151571 92279
Epoch: 2025-12-18T13:39Z
TLE epoch observation values (Epoch: 2025-12-18T13:39:04.431Z)
Latitude
0.00001°
Longitude
-138.29899°
Altitude
996.619 km
Speed
7.356 km/s
True Right ascension
10h 15m 34s
True Declination
0° 00' 00"
Sunlit
Object was in daylight at epoch
Visualization orbit readout
Latitude
Unknown
Longitude
Unknown
Altitude
Unknown
Speed
Unknown
Apparent Right ascension
Unknown
Apparent Declination
Unknown
Sunlit
N/A
Visualization observer readout
Local Sidereal Time
22:46:23
Azimuth
Unknown
Elevation
Unknown
Doppler factor
Unknown
Orbital elements
Apogee altitude
1,012.817 km
Perigee altitude
989.79 km
Semi-major axis
7,379.441 km
Eccentricity
0.00156
Inclination
39.9883°
RAAN
153.8919°
Arg. of periapsis
279.4335°
True anomaly
80.64117°
Mean anomaly
80.4648°
Eccentric anomaly
80.55298°
Mean motion
3.4238 °/min
Orbital period
105.15 mins
BSTAR
0.00001023
Loading maneuver chart data...
Computing Atmospheric mass density...
Loading historical data...
Loading historical data...
Loading historical data...
Loading historical data...
Loading historical data...
Loading historical data...
Loading historical data...
Other satellites on launch #28 in the year 2024 (2024-02-14 UTC)

Documentation

Showing up to 5 results
|